CAPE
0 0 0 0 0 0 0 0 0 0 0 0 0 0 0 0 0 0 0 0 0 0 0 0 0 0 0 0 0 112 333 775 1022 921 611 547 357 235 186 123 78 0 0 107
0 0 0 0 0 0 0 0 0 0 0 0 0 0 0 0 0 0 0 0 0 0 0 0 0 0 0 0 1 354 548 706 765 975 733 615 371 268 239 187 93 7 0 120
0 0 0 0 0 0 0 0 0 0 0 0 0 0 0 0 0 0 0 0 0 0 0 0 0 0 0 0 41 431 543 761 780 961 766 465 288 184 175 172 170 154 70 436
0 0 0 0 0 0 0 0 0 0 0 0 0 0 0 0 0 0 0 0 0 0 0 0 0 0 0 0 51 341 908 712 677 884 701 590 417 205 162 218 388 429 475 669
0 0 0 0 0 0 0 0 0 0 0 0 0 0 0 0 0 0 0 0 0 0 0 0 0 0 0 0 0 343 917 910 676 695 795 758 437 362 422 422 502 644 654 394
0 0 0 0 0 0 0 0 0 0 0 0 0 0 0 0 0 0 0 0 0 0 0 0 0 0 0 0 0 241 611 571 696 584 790 836 709 600 331 287 337 176 105 25
0 0 0 0 0 0 0 0 0 0 0 0 0 0 0 0 0 0 0 0 0 0 0 0 0 0 0 0 0 124 635 659 647 718 921 946 746 601 436 366 343 149 54 2
0 0 0 0 0 1 0 0 0 1 0 0 0 0 0 0 0 0 0 0 0 0 0 0 0 0 0 0 0 143 398 829 821 826 916 1144 815 551 756 410 219 172 89 5
1 1 0 0 0 0 0 0 2 0 1 1 0 0 0 0 0 0 0 0 0 0 0 0 0 0 0 0 0 0 375 869 805 1011 1185 1181 929 660 489 421 233 164 72 1
9 3 0 0 0 0 0 0 3 7 0 0 0 0 0 0 0 0 0 0 0 0 0 0 0 0 0 0 0 0 663 630 753 681 1253 1028 918 788 697 418 254 155 21 4
8 15 0 0 0 0 3 3 5 2 2 4 0 0 0 0 0 0 0 2 1 0 0 0 0 0 1 4 6 0 494 1066 1075 983 1325 1094 931 862 653 370 151 58 5 4
3 11 0 0 0 0 0 0 5 0 0 0 0 0 0 0 0 0 0 0 0 0 0 0 0 0 0 16 23 3 192 1353 1337 741 1309 964 977 740 403 130 4 3 2 0
16 1 0 0 0 0 0 0 0 2 0 0 3 0 0 0 0 0 0 0 0 0 0 0 0 0 0 7 32 132 0 1496 1318 1203 1452 905 733 520 140 6 4 1 2 1
5 0 1 1 0 0 1 2 7 0 0 2 6 3 0 0 1 0 0 0 4 0 0 0 0 0 8 1 20 101 119 736 1367 1688 972 795 528 216 13 3 2 2 0 0
2 0 1 2 3 2 3 7 4 4 4 1 0 1 1 0 0 3 1 1 5 0 0 0 0 40 32 17 13 114 310 874 1568 1620 266 629 108 35 3 4 3 2 0 0
1 0 0 0 0 0 0 1 2 4 9 16 9 1 0 0 0 1 1 1 3 2 0 0 0 0 27 76 24 130 433 1254 1739 1603 892 131 8 5 5 5 3 0 0 0
2 0 0 0 0 0 0 1 1 2 3 1 0 0 0 0 1 3 2 3 2 1 0 0 0 0 0 63 81 136 559 2005 1806 866 151 35 5 6 7 4 1 0 0 0
0 0 0 0 0 0 0 0 0 2 0 0 0 0 4 4 4 2 2 0 3 0 2 1 0 0 0 21 89 250 781 1377 829 162 6 6 6 7 5 3 2 1 0 0
0 1 0 0 0 0 0 0 0 2 0 0 1 2 1 0 3 1 0 0 0 1 0 4 1 1 14 171 252 342 1170 731 213 6 5 6 5 5 4 2 1 1 0 0
5 9 3 1 0 1 0 0 0 0 0 1 0 0 1 2 2 0 0 1 2 2 2 2 2 2 173 163 499 910 490 269 23 6 4 3 3 4 2 1 1 2 0 0
0 1 1 2 2 0 0 0 0 0 0 0 0 1 2 2 2 1 1 2 0 2 1 1 3 18 58 884 515 186 9 4 4 3 3 2 3 4 1 2 2 0 0 0
0 0 0 1 1 0 0 0 0 1 2 4 3 3 3 3 4 2 2 3 3 2 1 3 6 220 325 77 2 3 3 2 1 3 4 6 5 5 4 2 0 0 0 0
0 0 0 0 0 0 0 3 3 2 5 2 4 2 3 4 2 3 3 2 0 2 37 48 11 2 1 2 2 4 3 3 3 3 5 4 4 2 0 0 0 0 0 0
0 1 0 2 0 1 1 1 3 9 2 1 2 2 3 3 4 2 3 1 13 0 2 2 2 2 2 3 0 1 1 2 4 5 5 2 0 0 0 0 0 0 0 0
1 0 0 0 0 1 0 2 3 1 1 2 1 2 3 1 1 2 13 3 5 3 4 4 4 5 4 1 3 2 2 2 3 3 0 0 0 0 0 0 0 0 0 0
0 0 0 7 0 1 0 1 1 2 3 2 2 0 0 1 1 0 1 1 1 2 3 3 2 3 2 1 1 1 1 2 3 3 0 0 0 0 0 0 0 0 0 0
CIN
0 0 0 0 0 0 0 0 0 0 0 0 0 0 0 0 0 0 0 0 0 0 0 0 0 0 0 0 0 -247 -252 -165 -99 -148 -225 -267 -262 -333 -313 -306 -302 0 0 -217
0 0 0 0 0 0 0 0 0 0 0 0 0 0 0 0 0 0 0 0 0 0 0 0 0 0 0 0 -54 -175 -157 -160 -167 -140 -236 -301 -290 -301 -219 -208 -249 -342 -37 -173
0 0 0 0 0 0 0 0 0 0 0 0 0 0 0 0 0 0 0 0 0 0 0 0 0 0 0 0 -258 -157 -190 -133 -121 -162 -213 -366 -190 -260 -175 -157 -189 -212 -214 -54
0 0 0 0 0 0 0 0 0 0 0 -0 0 0 0 0 0 0 0 0 0 0 0 0 0 0 0 0 -150 -159 -87 -114 -123 -137 -199 -228 -198 -257 -202 -144 -113 -69 -54 -39
0 0 0 0 0 0 0 0 0 0 0 0 0 0 0 0 0 0 0 0 0 0 0 0 0 0 0 0 0 -128 -38 -61 -116 -122 -139 -128 -156 -172 -196 -67 -58 -36 -12 -41
0 0 0 0 0 0 0 0 0 0 0 0 0 0 0 0 0 0 0 0 0 0 0 0 0 0 0 0 0 -147 -73 -110 -79 -131 -90 -68 -93 -108 -207 -95 -124 -81 -82 -154
0 0 0 0 0 0 0 0 -1 0 0 0 0 0 0 0 0 0 0 0 0 0 0 0 0 0 0 0 0 -217 -64 -99 -86 -88 -53 -54 -45 -92 -162 -153 -76 -114 -202 -72
0 0 0 0 0 -3 0 0 0 -0 -0 -0 -1 0 0 0 0 0 0 0 0 0 0 0 0 0 0 0 0 -234 -128 -63 -64 -85 -103 -74 -67 -28 -83 -89 -116 -164 -212 -320
-1 -1 0 0 0 0 -1 0 -6 -0 -0 -0 0 0 0 0 0 0 0 0 0 0 0 0 0 0 0 0 0 0 -165 -74 -105 -24 -44 -50 -10 -56 -84 -80 -114 -209 -283 0
-1 -1 0 0 0 0 0 -2 -0 -0 -0 -0 0 0 0 0 0 0 0 0 0 0 0 0 0 0 0 0 0 0 -129 -130 -177 -84 -2 -62 -42 -57 -41 -86 -172 -245 -317 0
-3 -0 0 0 0 -0 -3 -1 -0 -0 -2 -1 -0 0 0 0 0 0 0 -32 -43 0 0 0 0 0 -68 -389 -292 0 -179 -70 -67 -90 -24 -42 -24 -33 -58 -116 -220 -317 0 0
-2 -1 0 0 0 0 0 -0 -2 -0 0 0 -0 0 0 0 0 0 0 0 0 0 0 0 0 0 0 -337 -356 -395 -241 -53 -31 -129 -12 -58 -36 -38 -82 -225 -43 0 0 0
-1 0 0 0 0 0 0 0 0 0 -0 -0 -0 0 0 0 0 0 0 0 0 0 0 0 0 0 0 -358 -363 -295 0 -23 -27 -85 -2 -43 -78 -69 -233 -337 0 0 0 0
-1 0 -0 0 0 0 0 0 -0 0 0 -1 -1 -0 0 0 -1 -0 0 0 -1 0 0 0 0 0 -250 -196 -344 -288 -323 -97 -35 -1 -19 -10 -106 -277 -422 0 0 0 0 0
-1 0 0 0 0 0 -0 0 -0 -2 -2 -5 -0 -0 -0 -1 -0 -0 -0 -1 -0 -0 0 0 0 -155 -226 -350 -365 -296 -232 -73 -25 -6 -218 -7 -301 -495 0 0 0 0 0 0
-0 -2 0 0 0 0 -1 -1 -1 -0 -0 0 -0 -0 0 0 0 0 -0 0 -0 -0 0 0 0 0 -237 -238 -346 -267 -189 -36 -6 -5 -50 -204 -532 0 0 0 0 0 0 0
-0 0 0 0 0 0 0 -0 0 0 0 0 0 0 0 0 0 0 0 0 0 -0 0 0 0 0 -55 -242 -274 -275 -169 -1 -1 -79 -334 -412 0 0 0 0 0 0 0 0
-1 -0 0 0 -0 0 0 0 0 -1 0 0 0 0 -0 0 -0 0 0 -0 0 0 -0 -0 0 0 0 -279 -264 -286 -102 -3 -77 -294 -183 0 0 0 0 0 0 0 0 0
0 -2 0 0 0 0 0 0 0 0 0 0 0 0 0 0 0 0 -0 0 0 -0 0 0 -0 -0 -290 -133 -157 -180 -4 -84 -256 0 0 0 0 0 0 0 0 0 0 0
-0 -0 -0 0 -1 -0 0 0 0 -0 0 0 0 0 0 0 0 0 0 0 0 0 0 0 0 -0 -66 -91 -48 -7 -133 -217 -390 0 0 0 0 0 0 0 0 0 0 0
0 -0 0 0 0 0 0 0 0 0 0 0 0 0 0 0 0 0 0 0 0 0 0 0 0 -71 -53 -4 -70 -176 -157 0 0 0 0 0 0 0 0 0 0 0 0 0
0 0 0 0 0 0 0 0 0 -1 0 -0 -0 0 0 0 0 0 0 0 0 0 0 -80 0 -10 -22 -135 -22 0 0 0 0 0 0 0 0 0 0 0 0 0 0 0
0 0 0 0 0 0 -11 -0 0 0 0 -0 0 0 0 0 0 0 0 0 0 0 -0 -11 -34 -8 0 0 0 0 0 0 0 0 0 0 0 0 0 0 0 0 0 0
-0 0 0 0 0 -0 0 -0 -0 -0 0 0 0 0 0 0 0 0 0 -0 -12 0 0 0 0 0 0 0 0 0 0 0 0 0 0 0 0 0 0 0 0 0 0 0
-0 0 0 0 0 0 0 -0 0 0 0 0 0 0 0 0 -5 0 -6 0 0 0 0 0 0 0 0 0 0 0 0 0 0 0 0 0 0 0 0 0 0 0 0 0
0 0 0 -2 0 0 0 -0 -0 0 0 0 0 0 0 -1 0 0 0 0 0 0 0 0 0 0 0 0 0 0 0 0 0 0 0 0 0 0 0 0 0 0 0 0
Wind_Speed
20 24 27 29 26 29 31 34 38 37 36 40 41 45 42 41 40 38 37 35 36 36 36 36 35 36 33 33 32 32 30 30 27 25 23 20 15 26 21 25 23 21 19 17
20 20 18 21 23 25 29 36 39 38 35 41 42 46 44 44 42 32 33 30 33 35 34 35 36 36 35 34 33 32 30 31 31 28 24 23 18 24 24 25 24 21 18 14
21 21 22 22 21 23 33 38 40 42 39 37 40 43 28 27 27 27 24 22 19 27 34 35 35 35 35 34 32 33 31 31 33 29 25 20 19 16 28 29 20 18 16 13
23 22 22 23 20 22 39 35 36 36 36 35 30 43 41 37 34 29 28 23 21 19 27 35 37 37 38 35 30 31 32 32 33 32 27 23 22 22 30 23 20 15 13 11
24 23 23 27 22 32 34 26 30 37 40 42 27 32 31 27 30 29 26 23 21 18 15 24 33 37 38 36 34 28 31 31 32 32 30 26 25 25 23 21 13 14 12 10
22 19 18 20 21 19 22 29 38 37 30 32 29 16 26 25 20 26 24 21 18 15 11 14 26 29 33 34 33 31 29 29 30 35 34 30 26 28 18 16 14 12 9 10
29 22 15 19 22 21 30 35 33 28 23 26 22 24 19 27 25 35 29 27 22 22 20 21 22 24 29 32 32 30 29 30 27 30 33 33 28 26 20 16 15 13 9 6
28 26 18 17 25 32 35 19 23 25 25 29 25 23 25 24 29 30 31 24 19 15 18 21 25 25 27 31 30 30 29 29 27 31 34 32 33 34 20 18 15 12 9 4
30 20 19 20 12 9 16 17 18 22 20 26 19 21 27 22 28 23 22 15 15 16 18 21 25 26 28 30 30 30 28 33 27 30 33 35 27 21 18 15 14 11 6 5
20 29 25 20 22 12 7 18 19 17 25 26 23 26 24 25 25 22 19 17 17 20 22 23 25 26 27 28 28 29 31 33 33 35 34 31 28 22 18 16 14 9 6 3
23 17 21 30 15 16 15 12 14 19 19 25 34 25 20 26 27 27 25 23 24 24 25 26 28 29 29 28 28 29 33 30 33 32 27 27 28 24 20 18 14 9 5 1
21 21 22 28 6 10 9 9 9 15 19 19 26 20 24 31 30 27 30 31 33 32 31 31 32 32 32 30 29 29 31 34 38 29 37 28 24 23 19 17 13 8 5 3
22 20 28 30 19 19 17 12 9 14 14 14 19 23 21 30 37 42 44 43 43 42 38 34 34 34 33 33 30 28 33 35 35 32 30 29 25 23 19 16 13 8 6 6
14 14 12 19 22 32 16 14 15 11 12 13 20 33 35 40 43 43 44 43 40 39 40 37 35 33 33 34 32 29 34 34 33 38 32 32 24 23 19 15 11 8 8 8
16 17 14 10 12 15 18 18 17 16 14 16 22 22 23 38 42 44 44 42 40 38 37 36 35 34 34 35 36 29 33 34 32 37 30 40 28 23 18 14 11 9 8 6
18 19 22 36 15 11 13 13 13 11 10 13 14 18 15 26 34 44 43 44 43 41 41 40 39 37 37 35 37 31 35 39 32 36 34 33 25 21 18 14 12 11 7 7
20 19 30 31 37 38 19 19 19 20 16 15 11 17 17 17 23 40 44 45 46 45 46 45 43 41 39 39 36 36 37 36 33 34 33 27 23 20 17 15 13 11 9 9
18 20 23 32 35 27 24 19 19 22 24 19 14 16 12 23 37 35 37 38 41 39 38 40 42 41 42 39 39 38 37 30 33 33 33 28 24 21 18 17 15 12 10 7
9 18 29 28 29 14 17 16 22 30 40 30 24 27 13 41 34 33 30 33 36 38 40 40 40 41 41 41 40 39 26 25 35 34 32 29 26 23 21 18 16 11 9 6
14 11 18 26 31 30 23 15 22 25 17 19 34 36 37 31 23 26 29 32 39 40 41 42 41 41 39 39 39 30 30 28 37 40 34 29 27 25 22 18 16 11 11 11
25 20 17 13 19 17 19 21 28 21 22 33 40 29 30 26 21 27 29 31 33 35 38 39 37 34 35 23 27 30 29 31 38 42 33 30 27 25 22 17 15 14 12 11
24 25 24 22 22 21 23 24 17 12 29 29 30 33 29 26 27 29 27 27 29 32 37 34 25 22 23 23 28 28 29 33 40 38 35 32 27 24 20 19 16 14 13 15
21 18 23 14 14 13 23 16 14 14 27 30 28 23 26 28 32 28 23 20 17 17 17 18 18 22 23 23 26 25 33 38 38 39 36 31 26 22 21 20 17 14 16 12
20 21 13 19 18 13 25 24 4 30 28 30 25 22 19 22 20 19 19 25 30 24 25 32 27 28 25 30 28 35 40 40 39 39 35 31 27 24 18 14 12 15 12 9
11 20 12 11 11 21 2 23 25 26 24 20 19 18 17 12 6 10 19 26 24 21 30 30 46 41 42 38 40 40 42 39 41 37 32 29 26 23 19 14 12 11 13 10
13 8 13 13 22 16 21 23 25 21 17 20 18 15 9 1 7 9 21 23 29 31 32 29 31 25 38 35 41 38 41 42 38 35 32 28 25 21 21 22 18 14 13 10
Wind_Direction
347 334 325 325 326 319 311 305 299 300 300 298 295 288 290 280 286 289 289 282 276 272 268 267 267 264 266 262 256 252 248 238 233 235 229 231 219 240 248 249 251 251 253 261
343 328 328 333 331 321 310 299 292 290 297 295 292 278 272 273 270 281 293 290 278 271 269 265 264 265 261 262 257 251 247 238 233 235 238 237 233 245 244 246 247 250 251 258
334 327 329 326 325 322 300 286 278 282 293 294 287 279 307 313 314 304 302 292 286 278 268 265 262 262 261 259 257 251 248 241 234 236 236 242 237 239 239 240 246 250 251 260
338 341 332 327 324 322 275 289 282 289 292 297 315 284 292 307 312 307 300 300 291 283 276 267 262 261 258 257 259 255 249 244 236 232 232 229 227 224 236 241 243 246 248 257
342 340 331 320 318 300 287 309 300 288 280 282 310 307 314 329 315 311 308 301 302 292 276 271 265 260 258 255 254 257 249 245 235 229 232 235 235 234 231 239 230 242 247 249
356 348 339 330 320 325 322 307 291 295 306 303 310 308 320 333 336 312 310 314 314 307 305 287 271 269 258 255 252 251 248 243 238 232 232 230 225 227 220 219 222 224 225 258
2 13 14 338 316 320 308 300 297 310 315 315 331 319 306 319 321 298 298 296 299 294 294 286 276 272 264 257 252 247 246 241 237 230 227 226 220 229 219 207 207 209 228 225
7 6 26 9 320 297 285 334 320 318 317 318 328 322 322 328 311 305 292 300 306 304 293 290 275 274 270 263 254 246 243 239 235 228 224 225 227 229 222 211 205 215 216 233
353 360 338 257 251 4 349 333 330 322 323 321 326 330 326 325 318 322 318 302 298 301 302 290 279 277 274 268 259 249 243 239 235 227 220 220 222 216 220 217 215 214 216 253
10 291 340 348 338 343 334 333 330 329 326 326 327 325 325 319 321 318 322 311 299 296 297 293 285 281 276 271 264 249 241 238 233 227 211 211 217 217 221 215 216 216 220 247
357 1 349 325 352 345 341 327 328 328 327 324 319 327 332 319 317 308 307 296 289 290 290 288 280 277 274 271 267 250 239 236 232 229 224 214 218 221 214 217 215 200 200 193
1 355 344 327 290 340 334 319 311 323 329 321 317 284 322 306 308 308 301 291 287 284 285 283 278 273 269 266 264 253 239 232 227 224 220 214 211 208 213 210 204 193 177 142
356 354 342 324 351 355 351 347 304 300 297 270 246 245 335 312 301 286 285 283 283 277 275 277 275 268 265 264 264 253 239 231 228 222 221 212 205 208 201 200 200 184 156 139
341 343 329 311 322 318 312 313 312 290 294 264 238 260 260 273 281 295 289 288 284 276 269 268 270 264 264 261 260 253 239 232 224 218 217 212 202 196 187 182 178 173 156 141
4 347 339 311 265 270 276 283 266 253 262 254 256 261 261 268 305 300 285 283 282 275 268 265 265 264 259 258 250 254 240 230 221 219 213 219 206 192 187 184 180 163 154 139
2 349 344 309 268 321 306 296 263 250 257 252 259 266 307 326 320 300 290 281 277 275 265 262 260 260 256 256 247 249 236 225 215 212 206 209 196 182 181 176 166 159 149 134
357 359 331 327 319 299 351 360 354 342 337 333 280 277 325 286 272 278 279 279 273 267 261 256 254 253 253 249 249 244 234 224 210 207 203 197 194 183 180 170 163 162 144 129
3 357 342 329 322 345 353 1 350 336 325 327 297 294 279 266 278 272 265 256 258 258 258 254 250 250 249 253 247 238 230 215 202 199 199 191 185 179 174 165 164 159 139 133
12 3 335 335 338 332 356 3 351 335 294 325 335 335 322 285 280 268 259 257 254 258 260 258 256 255 254 252 243 230 205 193 198 196 194 188 180 172 165 165 159 156 140 117
9 1 347 343 336 344 1 10 358 348 280 349 324 285 284 283 278 266 266 258 260 255 252 250 254 254 249 240 225 198 194 183 195 192 189 184 173 166 161 157 154 147 125 104
354 359 351 354 352 353 359 359 351 353 351 283 290 276 281 275 265 267 267 260 252 247 244 240 240 235 233 194 179 187 185 187 190 186 182 177 168 162 154 149 144 134 119 102
353 352 348 355 356 1 358 349 356 283 278 280 278 281 276 273 274 270 264 253 248 243 236 212 227 215 186 171 175 181 180 179 180 177 172 170 162 158 151 142 137 125 112 104
357 358 348 356 345 318 348 277 270 270 276 281 280 279 278 278 277 269 256 239 215 193 211 184 172 175 174 172 174 174 174 174 170 168 164 163 155 150 145 136 132 122 109 112
355 353 0 351 355 343 278 273 318 281 278 281 276 279 288 288 281 258 207 166 153 149 144 160 162 171 171 174 174 175 172 169 161 160 156 154 148 145 140 143 128 119 135 131
353 353 356 323 327 280 342 279 280 279 278 275 278 284 285 292 269 186 172 165 164 158 154 157 150 157 162 169 174 171 171 160 154 151 151 147 146 143 137 133 129 132 166 164
18 14 3 287 281 267 271 279 283 277 274 281 284 290 284 236 192 155 151 157 157 156 157 160 161 159 161 161 163 163 166 146 145 146 148 148 145 137 130 120 132 121 130 111